This is the latest recevied weather packets stored in our database for station/object DL2GFH-3. If no packets are shown the sender has not sent any weather packets the latest 10 day(s).
| Time | Temp. | Humidity | Pressure | Rain* | Wind** | Luminosity | Snow |
|---|---|---|---|---|---|---|---|
| 1777437149 | 22.22° C | 24% | 1017.3 hPa | - | - | - | - |
| 1777436243 | 23.33° C | 23% | 1017.2 hPa | - | - | - | - |
| 1777435338 | 23.33° C | 23% | 1017.1 hPa | - | - | - | - |
| 1777434432 | 20.56° C | 27% | 1017 hPa | - | - | - | - |
| 1777433527 | 20° C | 27% | 1017.1 hPa | - | - | - | - |
| 1777432622 | 20.56° C | 26% | 1017 hPa | - | - | - | - |
| 1777431716 | 21.67° C | 25% | 1016.8 hPa | - | - | - | - |
| 1777430811 | 21.67° C | 25% | 1016.8 hPa | - | - | - | - |
| 1777429905 | 18.33° C | 29% | 1016.8 hPa | - | - | - | - |
| 1777429000 | 18.33° C | 29% | 1016.8 hPa | - | - | - | - |
| 1777428094 | 18.33° C | 29% | 1016.7 hPa | - | - | - | - |
| 1777427189 | 18.33° C | 29% | 1016.6 hPa | - | - | - | - |
| 1777426284 | 18.89° C | 29% | 1016.6 hPa | - | - | - | - |
| 1777425378 | 18.89° C | 29% | 1016.6 hPa | - | - | - | - |
| 1777424473 | 18.89° C | 30% | 1016.6 hPa | - | - | - | - |
| 1777423567 | 18.89° C | 30% | 1016.6 hPa | - | - | - | - |
| 1777422662 | 18.89° C | 30% | 1016.6 hPa | - | - | - | - |
| 1777421757 | 18.89° C | 30% | 1016.7 hPa | - | - | - | - |
| 1777420851 | 18.89° C | 30% | 1016.7 hPa | - | - | - | - |
| 1777419946 | 19.44° C | 30% | 1016.8 hPa | - | - | - | - |
| 1777419040 | 19.44° C | 30% | 1016.9 hPa | - | - | - | - |
| 1777418135 | 19.44° C | 30% | 1016.9 hPa | - | - | - | - |
| 1777417230 | 19.44° C | 30% | 1016.9 hPa | - | - | - | - |
| 1777416324 | 19.44° C | 30% | 1017 hPa | - | - | - | - |
| 1777415419 | 19.44° C | 30% | 1017 hPa | - | - | - | - |
* Rain since midnight (hover to see other rain measurements)
** Current wind speed in m/s (hover to see current wind gust speed)